Simultaneous Nadir Overpasses (SNOs) Predictions

Prediction of SNOs between FY3D and TERRA Satellite Orbit:

Table of predicted SNOs for the next 14.0 days since TLE Epoch: 11/16/2024
Index Date (FY3D) Time (FY3D) Lat,Lon (FY3D) SZA (FY3D ) Date (TERRA) Time (TERRA) Lat,Lon (TERRA) SZA (TERRA ) Distance(km) Time Diff (sec)
1 11/16/2024 15:40:03 76.56, -54.73 95.48 11/16/2024 15:40:41 76.57, -54.83 95.49 2.90 38
2 11/16/2024 16:30:47 -76.54, 112.65 84.53 11/16/2024 16:30:02 -76.55, 112.76 84.53 3.01 45
3 11/19/2024 02:52:35 76.59, 137.06 96.10 11/19/2024 02:52:53 76.60, 137.17 96.11 3.06 18
4 11/19/2024 03:43:18 -76.54, -55.39 83.96 11/19/2024 03:42:15 -76.53, -55.40 83.97 0.58 63
5 11/21/2024 13:14:32 -77.06, 159.74 82.92 11/21/2024 13:15:38 -76.98, 162.70 82.96 74.48 66
6 11/21/2024 14:05:07 76.60, -31.02 96.65 11/21/2024 14:05:06 76.59, -30.97 96.64 1.71 1
7 11/21/2024 14:55:42 -76.18, 137.86 83.74 11/21/2024 14:54:34 -76.22, 135.52 83.74 62.07 68
8 11/24/2024 00:26:54 -76.64, -6.60 82.81 11/24/2024 00:27:57 -76.63, -6.59 82.82 1.86 63
9 11/24/2024 01:17:38 76.57, 161.02 97.13 11/24/2024 01:17:18 76.57, 160.90 97.13 3.28 20
10 11/26/2024 11:39:25 -76.63,-174.61 82.35 11/26/2024 11:40:08 -76.62,-174.71 82.36 2.94 43
11 11/26/2024 12:30:10 76.59, -7.16 97.63 11/26/2024 12:29:28 76.61, -7.06 97.64 3.18 42
12 11/28/2024 22:51:56 -76.62, 17.34 81.92 11/28/2024 22:52:17 -76.66, 17.34 81.89 3.91 21



Historial Predications of SNOs between FY3D and TERRA
